Погода в Неме

Россия / Кировская область     57°30′23″N   50°30′07″E
темп.,
°C
ветер,
м/с
пор.,
м/с
влажн.,
%
обл.,
%
осадки,
мм/ч
давл.,
гПа
погр.,
м
2 декабря, чт
чт200:00−3юз289016 0.0 991219
03:00−3юз498972 0.0 992517
06:00−4юз4990100 0.1 993721
09:00−4юз51091100 0.2 995725
12:00−3зюз5108092 0.4 9971124
15:00−5зюз5108375 0.4 998652
18:00−5зюз5108697 0.0 1000809
21:00−6зюз51086100 0.1 1001799
3 декабря, пт
пт300:00−5зюз51083100 0.1 1002911
03:00−5юз5108498 0.1 1003768
06:00−5юз41083100 0.0 1003599
09:00−5ююз41093100 0.2 1004521
12:00−3ююз41093100 0.3 1004561
15:00−3ююз399798 0.5 1006366
18:00−2ююз399879 0.4 1008337
21:000ююз41097100 0.6 1009451
4 декабря, сб
сб400:00−1ююз41094100 0.0 1010347
03:000ю51298100 0.1 1008492
06:00+2ю71697100 0.9 1005719
09:00+2ю81796100 1.0 1003806
12:00+1ююз81797100 0.7 1002923
15:00+1юз71397100 2.2 1002936
18:000зюз51185100 0.5 1005805
21:00−2зюз5986100 0.6 1007900
5 декабря, вс
вс500:00−2юз497996 0.1 10081018
03:00−3юз499099 0.1 1008626
06:00−4зюз4988100 0.1 1009708
09:00−4зюз5985100 0.2 10111058
12:00−7зсз6118098 0.2 1014712
15:00−11сз5107875 0.3 1017761
18:00−13сз487763 0.0 1020664
21:00−14сз467993 0.0 1022592
6 декабря, пн
пн600:00−15сз468183 0.0 1024549
03:00−15ссз468289 0.0 1026495
06:00−16ссз468478 0.0 1028417
09:00−17с358358 0.0 1031351
12:00−16с34795 0.0 1033339
15:00−16с24855 0.0 1035270
18:00−16св248641 0.0 1036189
21:00−16всв138660 0.0 1037133